ATLAS 5 CENTAUR DEB, 44039

Orbit data source: Space-Track

ATLAS 5 CENTAUR DEB, 44039 is space debris in HEO originally from a launch on Wed, 17 Sep 2014 UTC launched from the Air Force Eastern Test Range (AFETR). Debris objects in space refer to the collection of defunct objects orbiting the Earth. Examples of debris include non-operational satellites, rocket bodies, and fragments generated from explosions, collisions, or faulty payload assembly.

Loading next visibility...
Identifier
44039, 2014-055BZ
Orbit
HEO
Country
Flag of USUS
Related business
Flag of USUnited Launch Alliance/Lockheed Martin (US)
Manufacturer
Unknown
Mission
Spacecraft
Bus & Motor
Unknown
Mass
Unknown
Launch date (UTC)
2014-09-17 (11 years ago)
Launch vehicle
Unknown
Launch site
Air Force Eastern Test Range (AFETR)
Object type
Payload
Rocket body
Debris
Shape & HBR
Unknown
Radar Cross Section
Small (<0.1 m²)

Expand to show TLE details & history
Last TLE update: 1 week ago

TLE from 1 week ago
0 ATLAS 5 CENTAUR DEB
1 44039U 14055BZ  25252.12472046 -.00000023  00000-0  00000-0 0  9993
2 44039  20.1003 154.8983 4885277 146.6214 256.8036  1.89432344 47156
Epoch: 2025-09-09T02:59Z
TLE epoch observation values (Epoch: 2025-09-09T02:59:35.847Z)
Latitude
0.00004°
Longitude
121.55785°
Altitude
29,136.126 km
Speed
2.829 km/s
True Right ascension
10h 19m 30s
True Declination
0° 00' 00"
Sunlit
Object was in daylight at epoch
Visualization orbit readout
Latitude
Unknown
Longitude
Unknown
Altitude
Unknown
Speed
Unknown
Apparent Right ascension
Unknown
Apparent Declination
Unknown
Sunlit
N/A
Visualization observer readout
Local Sidereal Time
06:15:51
Azimuth
Unknown
Elevation
Unknown
Doppler factor
Unknown
Orbital elements
Apogee altitude
34,694.639 km
Perigee altitude
7,734.86 km
Semi-major axis
27,592.887 km
Eccentricity
0.48853
Inclination
20.1003°
RAAN
154.8983°
Arg. of periapsis
146.6214°
True anomaly
213.34277°
Mean anomaly
256.8036°
Eccentric anomaly
234.12337°
Mean motion
0.47353 °/min
Orbital period
760.25 mins
BSTAR
0
Loading maneuver chart data...
Computing Atmospheric mass density...

Documentation

Showing up to 5 results
|